Wind_Speed
21 22 23 25 26 24 24 26 28 32 32 29 26 15 4 2 5 13 10 12 9 4 3 4 4 4 8 10 4 2 2 3 3 3 2 1 1 2 2 2 1 2 3 3 4 3 3 4 4 5 4 3 3 3 4 7 7 5 5 5 6 4 2 3 4 4 5 8 12 13 10 8 7 7 7 5 4 5 3 3 3 0 2 3 2 3 1
21 22 23 25 26 24 23 24 26 29 28 28 22 8 3 4 4 12 15 10 8 5 4 3 6 6 7 7 3 5 2 3 3 4 5 4 3 3 3 5 3 2 3 3 3 2 2 4 5 5 5 3 3 4 6 7 5 4 2 3 4 3 2 3 3 4 5 6 8 9 8 8 5 7 11 7 6 9 9 5 1 4 4 3 5 1 2
21 23 23 25 25 23 22 22 24 26 26 24 16 3 3 5 3 5 11 11 7 4 4 4 6 7 7 5 2 3 4 2 2 2 5 5 3 3 3 3 3 2 1 2 0 2 2 3 3 4 4 3 2 5 6 7 3 3 3 3 3 2 2 2 2 2 2 1 3 4 5 6 5 8 11 8 9 12 8 3 3 4 4 5 5 2 0
20 22 23 24 24 23 22 21 22 24 25 24 15 4 3 3 2 3 5 6 5 3 4 6 7 5 6 5 2 2 2 3 3 2 4 3 2 3 4 1 1 2 2 1 2 4 3 3 2 2 3 3 2 2 3 4 5 7 7 3 1 1 2 3 2 3 3 5 5 7 7 6 7 11 12 9 11 14 9 3 3 3 3 5 4 7 5
19 20 22 23 23 23 22 21 21 21 25 25 14 4 3 1 3 3 2 1 3 3 4 6 6 4 3 2 1 2 3 4 5 4 1 0 1 2 3 3 1 2 2 1 2 3 4 4 3 3 3 3 3 3 4 5 7 9 8 4 2 1 1 5 5 5 6 8 9 9 9 7 9 12 13 10 9 11 9 7 8 5 6 4 2 6 8
18 19 21 22 23 22 21 22 21 20 23 21 9 2 3 2 4 3 5 2 3 4 4 7 9 8 4 1 1 4 4 1 3 3 1 0 1 1 0 3 4 4 2 1 2 0 2 2 2 3 3 3 3 5 6 6 5 6 6 3 1 2 1 5 6 8 8 6 7 8 6 6 9 11 11 11 10 10 8 9 12 11 8 3 3 5 10
17 18 20 21 22 21 21 23 22 21 23 17 3 3 3 3 3 5 7 5 5 8 11 9 9 7 3 1 2 2 5 6 5 4 3 1 1 2 1 3 4 4 2 5 3 1 1 1 2 0 2 2 1 3 3 5 5 5 6 2 3 2 1 4 6 9 10 9 9 6 5 3 7 9 10 13 13 14 12 11 12 11 10 8 5 9 12
16 17 18 20 21 20 21 23 22 23 23 13 2 4 3 3 4 5 6 6 6 8 11 11 7 1 3 2 1 2 6 9 6 0 2 1 3 3 3 6 4 3 3 5 2 2 4 2 2 3 3 2 1 2 2 3 5 4 3 2 3 2 1 4 4 5 6 9 10 7 4 4 3 5 10 12 13 14 14 12 11 10 10 11 10 8 7
15 16 17 19 20 19 20 21 22 22 21 12 2 4 8 9 9 9 5 4 5 6 7 9 7 0 3 1 2 3 8 9 4 4 4 2 3 1 5 6 2 1 1 1 2 3 7 2 2 1 1 1 2 3 3 3 2 3 3 3 1 1 1 3 4 3 4 8 9 8 6 2 3 6 10 11 10 10 10 9 9 8 8 9 10 6 3
13 14 16 18 19 19 18 20 21 21 20 14 5 6 12 13 13 11 5 4 5 6 6 7 7 1 2 3 2 2 7 7 2 2 3 2 6 5 4 8 6 2 1 2 5 5 5 4 6 5 4 4 2 3 4 5 2 2 2 2 1 1 1 1 1 2 4 7 8 8 4 2 4 2 4 7 8 7 8 8 9 9 6 6 5 1 2
12 13 15 17 18 17 17 18 20 20 20 17 8 7 10 12 9 6 4 4 5 6 5 6 6 3 1 4 4 4 6 4 3 3 1 1 3 1 2 3 4 3 3 3 4 6 6 5 4 4 5 6 6 5 5 6 3 4 2 1 1 1 2 1 2 1 3 7 8 6 3 4 1 3 1 5 5 8 10 9 9 10 7 4 3 2 2
11 12 13 15 16 16 15 15 18 18 18 17 10 8 11 13 9 4 2 4 6 6 5 6 7 9 9 10 6 5 6 4 4 8 3 2 3 3 1 2 1 0 3 4 3 5 5 3 4 5 4 6 7 6 5 5 2 4 5 2 1 3 3 2 2 1 2 5 6 4 3 1 1 4 4 5 7 11 12 10 10 10 9 6 6 6 6
10 11 12 13 15 15 14 13 15 16 16 16 13 9 12 14 9 3 2 4 6 5 6 8 11 12 12 14 13 7 6 2 5 7 4 3 3 2 2 3 1 1 2 3 5 5 4 4 4 3 4 5 5 5 4 4 4 5 6 4 3 2 2 2 2 1 0 2 3 1 1 3 4 6 8 8 7 7 7 8 10 11 9 8 8 9 8
10 10 11 12 13 14 14 13 13 15 15 15 14 12 12 12 9 4 2 3 5 5 7 7 9 12 12 14 16 12 5 5 9 6 3 2 3 5 2 2 2 3 2 3 5 3 1 2 2 2 3 2 1 2 3 3 5 5 1 5 5 4 2 1 1 2 0 2 1 2 2 3 5 5 7 8 7 5 3 6 5 10 10 9 8 9 9
10 9 10 11 12 13 13 12 12 14 15 14 14 12 9 10 10 6 2 2 4 5 4 3 5 11 13 12 14 12 3 6 7 4 3 3 2 5 1 3 4 4 3 3 3 0 2 2 2 2 1 1 1 1 2 2 4 2 3 4 4 5 2 1 2 1 0 1 0 2 3 0 3 4 9 9 8 8 5 6 2 8 10 10 8 8 8
10 8 8 10 11 12 13 13 12 13 14 14 14 12 7 5 8 7 3 2 3 3 3 5 9 11 9 8 11 10 3 3 4 3 4 5 1 5 2 4 4 3 1 0 1 1 2 2 2 2 0 2 2 1 1 2 2 1 3 2 2 3 4 4 3 1 2 2 1 2 2 2 4 6 9 8 8 9 6 5 2 6 7 8 7 6 6
11 9 8 10 11 11 12 13 13 13 14 14 15 13 8 3 4 6 3 2 2 4 7 10 11 9 5 5 8 8 5 1 3 4 2 3 2 3 1 4 4 1 2 2 1 1 2 3 3 1 1 0 0 1 1 2 1 1 2 1 1 1 1 3 2 3 3 0 1 2 2 1 3 6 7 7 7 6 5 4 1 5 6 6 5 5 4
11 9 9 10 11 11 11 12 13 13 13 13 14 14 8 2 3 5 4 3 3 4 6 11 11 7 6 7 6 5 6 4 3 5 2 2 2 2 2 2 2 2 1 0 1 2 3 3 2 0 1 0 1 2 1 1 1 1 2 2 2 2 1 1 0 2 3 3 3 2 2 1 4 5 7 8 5 4 5 2 3 2 5 5 4 4 4
10 10 10 10 10 11 11 12 13 13 13 13 13 12 7 1 2 5 5 2 3 4 7 12 13 10 9 10 8 5 5 5 3 4 2 1 0 3 3 2 1 1 1 0 1 2 3 1 1 1 0 0 1 1 1 1 2 1 1 2 2 2 2 2 3 3 2 3 3 2 2 2 5 4 7 8 4 3 3 2 3 3 4 3 4 3 4
9 10 10 10 10 11 12 12 12 13 13 12 13 12 8 3 2 5 6 3 3 5 8 10 11 11 12 10 8 9 8 4 0 2 2 1 1 2 3 3 2 1 1 1 1 2 1 0 0 0 1 0 1 1 1 0 2 2 2 2 1 1 1 2 2 2 1 3 3 2 1 3 5 4 6 7 3 3 3 2 4 5 4 3 3 3 4
9 10 10 10 11 12 13 12 12 13 12 11 12 12 8 2 2 5 7 6 3 3 5 7 10 15 16 14 14 17 14 6 1 3 2 1 1 3 2 1 1 1 0 1 1 2 1 1 1 0 1 1 1 1 2 1 2 2 2 2 1 1 1 1 1 1 1 3 2 2 3 3 6 5 4 3 3 4 3 4 5 4 3 3 3 4 4
9 9 10 10 10 11 12 12 12 12 12 10 10 9 8 6 3 7 10 8 5 7 11 16 21 24 24 23 24 24 17 10 7 6 6 2 2 2 2 1 2 1 0 1 1 1 1 1 1 0 1 1 1 2 3 2 1 1 1 3 1 1 1 2 1 2 2 3 3 4 5 5 5 5 5 5 6 6 6 6 5 4 3 2 2 3 4
8 9 9 10 10 10 11 12 12 12 11 11 9 7 9 11 9 10 11 8 7 10 16 21 21 19 20 20 19 17 14 10 9 11 11 6 1 3 1 1 2 1 2 1 1 0 1 1 1 1 0 1 1 2 4 3 1 1 1 2 1 0 1 1 2 3 4 4 4 5 6 6 6 6 6 7 7 6 6 6 5 4 4 3 4 4 4
8 9 9 9 10 11 11 12 12 11 11 11 9 8 11 13 10 11 11 5 3 5 9 11 8 7 10 12 11 11 9 6 5 8 8 6 3 2 2 1 1 2 2 1 1 2 2 1 1 1 1 0 1 2 2 0 2 0 2 1 2 2 2 1 2 4 4 3 3 5 7 7 6 6 6 6 7 6 5 5 5 4 4 4 5 5 4
9 9 9 9 10 11 12 12 12 11 11 11 10 9 11 10 6 6 6 5 3 2 3 4 4 8 12 13 14 13 10 9 9 5 2 3 3 2 1 2 3 4 2 1 2 3 1 1 1 1 1 1 1 1 3 2 1 0 1 1 1 1 1 2 3 3 4 3 2 5 8 7 5 5 5 5 6 6 5 5 5 5 5 4 5 5 5
10 10 9 9 10 12 12 12 12 12 11 11 10 10 10 11 9 6 6 6 4 3 3 3 5 9 11 11 16 16 13 16 18 10 5 7 10 5 6 4 2 4 3 2 2 2 1 1 1 1 1 1 1 0 1 1 2 2 1 2 3 2 1 3 5 4 4 3 2 5 7 6 5 6 5 5 5 5 5 5 6 6 6 5 5 5 6
12 11 10 10 11 12 12 12 13 11 10 11 11 11 12 14 12 9 6 6 3 2 2 2 4 10 16 16 18 20 18 21 18 11 9 12 11 3 6 4 1 3 2 1 1 0 1 1 1 2 1 2 1 1 0 1 1 2 1 1 2 3 1 1 5 4 3 2 2 4 5 3 3 4 4 4 5 5 5 5 6 6 5 5 5 5 6
11 11 10 11 12 12 12 12 12 10 10 11 12 13 14 15 14 11 9 7 5 3 2 3 5 10 14 15 18 18 14 12 10 10 12 13 10 6 5 6 3 1 1 2 1 1 2 2 1 1 1 2 0 1 1 2 2 3 1 2 2 2 0 1 4 4 3 4 4 5 5 4 4 4 3 3 5 5 5 5 5 5 5 6 5 4 3
10 11 10 10 11 11 11 11 10 9 10 10 10 11 13 13 12 12 10 9 9 6 3 4 5 5 7 10 15 16 10 5 5 7 10 11 11 9 5 7 4 3 3 3 3 3 2 1 1 2 0 2 1 2 1 1 3 2 1 2 3 4 3 4 6 5 4 5 6 5 4 4 5 5 5 4 5 6 6 5 5 5 6 6 5 3 3
10 11 10 9 10 10 10 10 9 9 9 9 7 7 6 5 4 7 9 10 10 7 3 2 3 4 6 8 10 11 10 8 8 10 13 9 7 6 6 6 4 3 2 1 2 1 1 0 2 2 1 1 2 1 1 1 3 2 2 1 4 5 5 5 5 5 5 5 4 3 4 6 6 5 6 6 6 7 6 5 6 5 5 4 4 4 6
10 10 9 9 10 10 9 9 9 8 7 6 4 2 2 1 4 7 7 6 5 4 2 2 3 3 5 5 6 9 13 12 11 11 12 8 5 6 6 6 4 2 2 1 0 1 1 2 2 1 1 3 2 0 1 0 1 3 3 3 4 5 5 5 5 5 6 6 5 3 2 4 5 6 5 5 6 8 7 5 5 4 2 2 5 6 6
9 8 8 9 9 9 9 9 8 8 7 8 9 8 7 3 3 6 4 2 2 2 2 2 2 2 2 3 6 10 12 11 10 8 7 5 4 6 6 4 2 1 1 1 1 0 1 2 3 2 1 1 1 1 0 1 1 3 4 4 4 5 6 5 5 5 5 5 6 4 2 2 5 6 7 5 6 8 8 8 10 9 4 2 6 8 6
7 7 9 10 9 8 9 9 8 9 10 12 15 18 17 10 4 2 1 1 2 4 3 2 2 2 2 2 3 7 9 7 4 3 3 1 2 3 4 3 2 2 3 1 0 1 0 1 3 3 0 1 1 2 0 1 2 4 6 5 4 5 5 5 5 5 4 4 5 4 3 3 5 7 9 8 7 7 5 5 9 11 9 6 6 7 6
8 9 10 9 8 8 9 9 9 9 10 10 13 16 17 12 7 6 7 6 3 4 4 2 2 2 3 3 2 4 6 4 1 2 3 2 4 3 2 2 2 1 1 0 1 1 1 1 3 3 1 1 2 1 2 2 4 5 5 5 5 5 5 5 5 5 5 5 5 5 5 6 7 6 6 6 6 6 4 2 4 6 3 1 3 7 7
8 9 8 7 7 8 8 8 8 8 8 9 11 12 11 10 8 8 10 10 4 2 2 3 2 2 3 3 1 2 5 3 2 2 3 2 5 3 1 2 2 1 1 1 1 1 2 1 2 2 2 2 3 2 3 4 6 5 4 5 6 6 5 5 5 5 6 5 5 5 5 6 5 4 4 4 3 5 5 3 3 5 4 4 3 4 4
8 7 6 6 7 7 7 7 8 7 6 8 10 7 5 7 7 7 8 8 5 3 1 1 2 3 3 2 2 2 5 3 2 2 1 1 2 1 2 3 1 1 1 0 1 2 1 0 1 2 2 2 3 4 5 5 7 6 6 6 6 6 5 5 6 7 7 6 6 5 4 4 4 4 5 4 2 3 3 1 1 4 5 2 1 3 2
6 4 4 4 5 5 5 6 9 10 7 4 5 7 8 7 6 5 5 6 6 5 2 2 2 3 2 2 2 1 1 1 2 2 1 1 0 1 1 2 2 0 1 1 2 2 1 1 1 2 3 3 4 5 6 6 6 6 6 6 6 6 5 6 7 7 7 7 6 5 4 3 4 4 5 4 3 4 4 2 2 1 2 2 2 3 2
4 2 2 3 3 2 3 5 8 11 9 4 3 6 6 4 3 3 4 3 4 5 4 2 3 3 2 2 1 3 3 2 2 1 1 1 1 1 2 0 1 1 2 3 2 0 1 1 1 3 3 3 4 5 6 5 5 5 6 6 6 6 5 6 6 7 7 6 5 6 5 4 4 4 4 4 5 5 4 3 3 2 1 2 2 3 3
3 1 2 3 4 3 2 2 7 10 9 5 3 2 3 3 2 2 2 3 3 4 3 3 4 4 3 3 2 2 2 1 1 1 1 1 0 0 1 1 0 1 3 3 1 1 1 3 2 2 3 4 5 6 6 6 5 5 6 6 6 7 6 6 6 6 6 6 6 6 7 6 5 5 5 4 4 4 3 3 3 2 2 2 4 4 4
4 3 3 3 2 4 4 4 11 11 7 4 3 2 1 2 2 2 2 2 3 2 2 3 3 4 5 5 4 2 2 2 2 2 2 1 1 1 1 1 1 1 2 3 2 1 2 2 2 3 4 4 5 6 8 8 6 6 6 6 7 8 8 6 6 6 5 5 7 8 7 6 5 4 4 4 3 2 2 2 2 2 2 2 1 1 3
4 3 3 3 6 9 7 3 8 7 3 2 2 2 1 1 2 2 2 3 3 3 3 3 3 4 5 5 4 3 3 3 1 2 2 1 1 1 2 1 1 0 2 2 2 2 2 2 3 4 4 4 5 7 8 8 7 6 7 6 8 10 9 7 7 8 6 5 8 9 7 7 6 4 4 4 4 3 3 4 4 3 2 1 2 3 4
5 4 7 11 11 9 6 4 5 3 1 0 0 1 2 2 2 2 2 2 3 2 3 4 4 4 5 6 5 3 3 3 2 1 2 1 1 1 1 2 1 2 2 1 2 2 2 3 3 4 4 5 7 8 8 8 7 7 8 7 8 10 9 7 7 8 9 8 9 8 8 8 7 6 5 4 4 3 2 1 0 1 1 2 2 3 4
7 7 8 9 6 3 2 2 3 2 1 1 0 1 2 3 3 3 2 2 2 2 2 4 4 4 5 6 5 2 2 3 2 1 2 2 1 1 1 2 2 2 1 2 1 2 3 3 4 3 4 6 7 8 8 8 7 7 7 8 10 12 11 9 8 10 11 12 11 10 9 8 7 7 6 4 3 2 2 1 2 2 2 3 4 5 6
5 5 4 3 2 2 1 1 1 2 2 2 2 3 4 4 4 4 3 3 2 2 2 3 4 4 5 5 3 2 2 2 1 1 2 3 2 1 2 2 2 2 1 1 2 3 3 4 3 4 6 6 7 8 8 8 8 7 7 8 10 11 10 9 10 10 10 11 12 10 9 8 7 7 6 5 4 4 5 5 5 5 5 5 5 6 6
2 2 1 0 1 1 1 1 1 2 3 3 3 4 4 5 5 5 4 3 3 4 4 4 4 4 4 4 3 2 2 2 1 1 2 2 2 2 2 2 1 1 2 2 3 3 3 3 3 6 8 8 8 8 8 8 8 8 7 7 8 7 7 8 8 8 8 9 10 10 8 8 8 8 8 7 6 6 6 6 6 6 6 6 6 6 7
2 2 1 1 1 2 1 1 2 2 3 3 4 5 5 5 5 4 3 2 2 3 4 4 4 4 4 3 2 2 2 2 2 2 2 1 2 2 2 2 1 2 3 4 4 4 4 4 4 7 8 8 8 8 8 7 8 8 8 7 7 6 7 8 8 8 9 10 10 10 10 10 10 9 7 6 6 6 5 5 5 6 6 6 6 6 7
2 2 1 1 1 2 2 3 3 3 3 4 5 5 6 5 5 4 2 1 1 2 1 0 1 1 1 1 1 1 2 2 2 1 2 2 1 1 1 1 2 3 4 5 5 4 3 3 5 7 7 8 9 8 7 7 7 7 8 7 6 6 7 8 8 9 10 12 12 11 10 9 8 7 6 5 5 4 3 3 3 3 4 5 6 6 6
1 1 2 1 1 3 4 4 4 4 5 5 5 5 5 4 5 5 3 2 2 1 2 2 2 2 1 1 1 1 3 3 2 1 1 1 1 1 1 2 3 3 3 4 5 4 2 4 6 7 7 8 8 8 7 7 8 8 8 7 7 7 7 7 8 10 12 12 11 9 8 8 8 7 6 5 4 2 1 1 2 2 3 5 6 5 5
3 1 1 2 2 3 4 5 5 5 5 5 5 5 4 5 6 5 1 3 3 3 3 2 1 1 1 1 1 1 1 1 1 1 1 2 2 2 2 3 4 4 3 3 3 1 3 4 6 8 8 8 8 8 7 7 8 8 8 8 9 9 9 9 11 13 13 11 10 9 9 9 8 6 5 3 3 3 3 2 2 2 3 4 4 4 4
3 2 2 3 4 3 3 3 5 5 5 5 4 4 4 4 4 2 1 3 3 3 3 3 3 3 2 2 1 1 1 1 1 2 2 3 2 2 3 4 3 2 1 2 0 2 4 5 6 7 8 8 8 7 7 7 7 7 8 10 11 11 12 13 14 13 12 12 11 11 9 7 5 4 4 4 4 3 1 3 4 4 3 2 2 2 3
2 2 2 4 5 4 3 2 3 3 4 4 3 3 3 3 1 1 1 2 3 3 2 2 3 3 2 2 2 1 1 1 1 2 2 2 2 3 4 4 1 1 1 2 1 3 5 5 5 6 7 7 7 6 7 7 7 8 10 13 14 14 14 14 14 13 13 14 12 9 7 6 5 4 4 3 2 4 6 6 4 3 1 0 1 2 2
2 2 2 4 5 5 4 4 3 3 4 4 4 4 3 1 1 2 3 3 3 2 2 2 3 3 2 2 1 0 0 1 2 3 3 3 3 3 3 2 2 3 1 1 1 2 4 5 5 5 6 6 6 7 7 6 7 9 12 14 15 14 13 13 14 14 14 13 11 9 8 7 6 5 4 5 6 7 6 4 4 4 2 1 2 2 2
Wind_Direction
346 347 347 347 349 352 353 353 353 356 360 1 360 353 304 241 287 290 258 182 189 251 225 242 261 239 251 254 248 80 69 308 318 12 328 294 82 308 325 38 37 71 50 356 26 25 346 25 15 337 3 40 38 54 13 344 344 353 2 11 1 343 336 341 320 301 320 334 323 313 320 334 332 315 294 255 255 277 235 211 227 185 281 261 108 91 274
345 346 345 346 349 352 354 354 355 358 5 5 357 347 309 310 282 295 286 221 193 259 244 235 264 254 250 243 184 113 108 293 325 12 341 345 32 323 353 37 7 31 50 344 20 44 324 41 28 338 12 12 318 37 39 349 354 55 49 347 348 332 325 358 347 328 344 350 336 331 345 0 353 314 310 307 322 318 294 277 21 41 1 41 92 90 273
343 343 344 345 348 352 353 353 354 356 1 3 356 329 286 303 239 272 276 236 206 244 251 261 274 281 296 288 232 177 190 184 48 5 308 317 10 331 324 6 328 343 51 231 88 36 356 32 20 345 12 344 313 47 21 342 7 71 37 6 357 315 306 359 19 349 339 304 296 307 319 330 315 309 321 341 5 354 323 300 64 53 10 38 85 132 162
340 341 342 344 348 350 351 351 352 354 355 356 351 296 263 315 275 270 268 225 204 224 248 266 268 282 304 296 276 256 232 105 98 229 256 259 253 276 292 329 337 335 342 333 20 16 18 39 24 23 25 331 335 59 334 335 27 13 353 340 320 325 297 288 242 219 219 206 223 252 262 285 307 312 328 359 14 3 354 14 52 101 84 47 87 133 124
338 340 342 345 348 349 350 349 348 351 351 350 346 283 244 307 277 289 335 226 231 233 219 238 255 270 309 333 32 237 212 143 155 202 216 140 243 289 323 338 314 297 308 43 48 356 6 41 37 29 21 312 324 35 4 5 21 357 325 262 208 81 275 278 261 238 230 210 212 244 270 303 317 312 326 356 11 358 359 23 21 37 74 35 337 130 122
337 341 343 346 348 348 349 347 345 349 348 344 342 246 246 267 264 312 2 346 292 297 268 237 239 245 246 192 194 255 263 203 160 166 106 89 210 163 178 260 256 266 298 90 121 130 358 52 48 17 354 300 344 23 2 343 348 336 311 277 100 90 276 309 315 301 292 264 237 239 257 307 313 308 327 352 3 355 1 32 35 42 68 54 325 48 75
338 342 344 346 349 348 349 349 347 347 344 340 315 215 279 297 297 334 352 337 305 306 301 277 246 238 232 153 164 260 278 261 234 192 153 151 96 88 339 297 283 294 21 76 89 72 33 86 104 72 287 292 18 35 348 320 313 303 300 333 66 85 323 328 316 304 308 308 294 260 210 239 295 308 339 356 6 17 22 32 42 52 66 77 60 46 56
337 341 343 345 348 350 351 351 351 350 350 349 254 224 310 336 333 335 331 321 311 307 310 306 287 261 68 60 148 252 267 269 273 177 106 45 67 91 280 280 281 313 44 94 136 139 117 129 176 184 222 257 137 141 195 250 280 289 298 11 73 115 339 328 312 306 303 298 298 287 229 198 251 333 2 2 13 35 36 24 28 40 51 69 74 52 41
335 339 343 344 348 352 353 355 356 357 1 4 324 321 350 345 341 339 314 303 322 310 306 308 295 223 96 141 184 218 257 274 310 64 82 349 320 316 308 318 336 346 38 8 280 132 122 130 299 224 241 259 169 162 190 225 282 0 2 4 42 188 316 334 332 338 305 288 290 283 261 197 94 31 15 6 14 47 56 36 30 36 43 60 65 52 351
333 338 341 342 347 352 354 358 0 1 10 17 352 334 353 348 344 347 324 288 310 301 297 303 294 267 147 205 193 211 249 257 286 86 114 243 270 278 340 2 355 321 85 22 346 25 70 29 351 349 336 319 256 231 254 252 232 85 1 326 309 264 313 339 319 326 298 294 302 296 286 100 93 31 23 24 20 47 72 64 48 43 49 61 63 85 249
330 335 338 340 345 352 355 360 4 5 14 23 4 310 335 344 338 340 331 301 295 293 296 298 295 312 284 246 222 203 230 225 133 131 157 247 253 258 25 3 329 329 21 34 7 13 27 16 341 322 319 310 288 276 286 283 253 133 140 288 314 330 349 298 237 242 292 301 313 329 11 89 155 265 78 77 51 56 66 60 47 44 52 87 115 137 116
322 329 336 336 341 350 354 357 4 7 10 15 0 300 318 340 331 312 333 309 294 296 292 291 311 330 328 313 290 214 233 270 152 149 146 7 52 77 36 283 217 58 331 329 3 20 6 313 266 255 248 260 265 260 261 273 248 156 160 170 40 19 357 322 278 234 300 318 338 2 26 64 299 324 15 55 78 88 81 59 42 40 43 55 67 75 86
316 319 326 331 337 346 351 354 360 3 2 2 354 322 328 342 331 297 345 307 282 297 309 306 318 327 327 328 321 274 246 333 81 118 106 24 358 340 265 233 158 98 304 335 28 33 354 300 284 278 258 254 269 277 264 258 255 218 180 149 102 53 3 327 310 282 224 7 8 22 249 306 350 11 10 15 42 78 81 55 29 20 27 39 45 56 71
318 314 320 330 337 341 346 350 353 355 356 355 348 336 338 343 330 315 0 314 279 307 323 316 322 328 327 330 325 302 251 113 98 109 127 144 271 280 248 155 43 22 19 32 41 43 329 291 281 269 262 247 275 323 329 315 286 277 152 108 107 96 51 23 342 301 144 113 111 145 137 337 353 9 349 351 4 1 54 87 28 357 18 40 45 56 69
321 313 318 328 336 341 342 343 346 348 349 348 345 337 335 343 339 328 322 304 299 307 302 283 315 326 325 322 319 311 291 121 122 156 156 121 256 277 270 81 33 12 24 59 65 251 262 278 265 253 231 139 162 296 341 329 292 299 47 70 110 131 149 138 111 331 337 127 146 100 105 295 296 311 316 333 359 356 27 99 37 344 21 48 52 61 77
321 310 313 323 331 339 341 339 339 342 343 344 343 336 334 356 354 343 330 303 289 277 280 313 322 318 313 313 317 317 311 132 128 145 130 116 210 275 296 89 72 34 338 32 96 277 278 270 274 286 122 152 185 194 343 327 312 96 101 102 134 159 174 150 132 248 258 184 143 96 123 218 250 276 302 337 4 350 4 76 23 338 24 56 58 61 76
323 307 301 312 324 334 340 338 336 337 340 344 342 334 332 15 10 341 324 261 267 274 282 301 310 305 298 313 326 335 334 350 96 95 87 112 166 259 284 110 116 141 247 236 167 220 266 249 259 300 58 162 186 98 49 314 303 15 60 64 9 333 184 148 169 253 273 271 87 85 99 241 268 278 307 345 356 350 20 68 348 339 25 54 58 61 77
328 314 299 304 317 325 332 337 338 336 336 339 337 326 319 29 29 322 293 271 274 262 278 300 305 307 323 323 314 320 321 320 104 117 101 69 83 270 254 159 151 179 233 251 158 219 256 254 252 23 80 2 52 95 100 28 16 348 359 11 340 325 340 79 347 319 356 41 64 87 99 298 288 307 341 345 336 16 57 121 235 343 38 47 52 65 81
329 322 307 303 309 314 320 330 335 334 330 333 336 323 301 277 322 296 287 289 265 259 298 311 307 311 331 328 313 311 323 331 33 85 96 103 8 295 301 329 36 79 106 125 208 233 254 275 351 46 144 230 66 121 166 142 112 111 48 21 347 331 342 16 18 357 13 76 95 109 107 325 307 328 3 0 0 79 91 189 191 98 70 54 44 63 84
327 324 313 305 302 305 314 322 326 327 327 332 337 327 303 267 272 282 275 270 281 289 291 287 290 309 325 326 318 317 316 312 21 98 103 195 261 350 354 345 359 55 159 204 253 266 274 33 3 3 50 46 46 23 303 115 93 81 71 58 16 355 3 27 29 350 10 83 76 90 113 351 350 17 27 16 41 144 154 116 95 85 86 75 38 40 84
325 325 320 313 303 297 304 311 318 326 328 329 335 329 309 280 41 343 313 298 292 289 284 296 310 309 304 303 299 296 299 315 59 112 115 151 150 113 116 262 304 339 68 83 9 292 338 58 190 224 21 23 64 355 330 350 41 38 66 94 64 358 22 90 68 341 32 74 72 123 136 50 25 49 80 69 90 120 108 92 90 84 89 89 44 33 74
318 322 322 321 315 305 302 301 305 317 324 327 333 325 295 273 307 342 335 316 275 253 271 292 298 292 290 293 288 286 302 344 28 63 83 78 348 36 93 197 270 287 102 118 174 256 11 43 171 124 13 4 90 35 12 25 10 326 50 88 71 276 189 137 92 40 71 107 143 152 131 97 60 62 82 82 76 73 71 78 91 91 87 100 87 65 78
310 313 314 319 321 319 316 307 300 301 309 321 328 313 289 285 297 327 333 310 266 260 267 273 279 284 289 288 280 282 307 344 27 60 81 95 355 344 10 245 256 307 55 79 157 112 56 60 154 154 271 264 127 59 32 32 258 239 72 57 12 120 141 129 103 87 76 79 107 125 113 96 81 68 64 67 68 69 70 68 72 79 74 75 93 97 96
297 303 307 316 320 320 319 316 307 295 294 307 316 303 292 292 309 342 343 310 264 284 274 261 258 266 274 279 279 279 280 294 358 39 73 93 70 4 334 342 53 66 40 26 77 80 51 326 233 192 236 194 134 139 112 39 279 271 81 24 329 9 30 64 102 106 97 67 66 97 100 93 89 81 71 69 65 63 74 83 87 92 80 69 84 105 106
283 288 296 306 313 313 313 314 312 299 287 294 304 302 292 288 304 347 337 291 269 311 302 280 269 264 264 270 275 270 248 239 259 265 145 147 204 198 103 49 90 107 92 354 49 75 79 270 270 281 305 43 87 156 157 165 236 67 110 190 223 316 14 90 83 83 104 105 73 83 88 87 94 96 88 83 75 62 65 82 93 99 98 82 77 95 114
277 279 285 297 306 307 308 311 310 301 286 286 295 294 283 276 277 288 291 284 272 250 262 283 287 294 300 289 275 267 241 225 232 224 186 229 234 182 101 59 37 70 68 10 17 53 239 244 219 248 270 111 126 281 115 146 170 149 171 199 159 123 102 119 110 94 96 102 85 85 82 70 72 87 88 91 93 74 56 63 80 90 98 94 70 66 92
272 275 284 298 304 304 306 309 307 298 287 284 288 286 278 274 274 266 262 278 287 252 256 266 290 319 326 316 292 277 247 219 212 196 192 231 244 182 120 145 163 51 58 13 353 272 243 265 236 227 187 135 182 252 128 140 144 104 79 355 98 95 35 117 117 118 138 155 121 103 108 108 98 92 87 90 97 87 63 62 74 79 87 101 95 69 73
273 277 284 293 299 301 305 308 304 296 290 288 288 288 282 274 267 254 238 242 260 283 311 297 295 313 316 309 302 293 262 212 187 183 197 213 228 226 183 156 144 134 176 187 210 213 213 233 254 283 77 113 119 298 182 165 106 78 40 334 20 85 176 114 110 124 162 162 133 115 120 138 147 146 139 121 109 105 89 71 71 77 83 96 109 104 99
272 274 278 285 295 300 304 307 304 299 297 298 300 298 287 270 256 246 231 228 244 263 294 286 277 295 303 298 305 308 293 232 194 219 226 214 207 205 163 122 142 225 217 186 203 214 210 202 80 44 105 173 110 1 316 124 89 94 260 312 31 74 89 99 110 124 137 145 152 153 141 142 157 158 139 103 91 104 106 81 61 56 52 65 77 64 65
272 272 276 288 298 300 301 304 303 301 302 305 305 292 275 255 227 221 220 226 237 246 271 295 282 308 316 302 297 294 276 242 216 231 242 229 194 175 150 138 163 234 268 224 202 210 232 80 72 59 42 109 83 31 306 46 94 135 197 154 86 86 78 76 93 115 134 151 163 155 135 141 149 139 114 96 93 102 100 80 68 55 24 35 77 52 23
274 273 280 292 295 294 296 299 300 300 298 295 288 258 245 122 130 162 185 201 209 222 264 282 265 295 311 295 278 273 259 231 208 224 245 238 173 146 159 161 159 201 240 238 105 133 141 99 94 76 27 39 46 23 266 339 107 149 160 147 124 110 98 90 94 111 133 142 135 117 126 142 136 124 119 124 124 121 119 118 115 101 356 4 107 95 45
270 275 286 293 291 289 291 294 297 294 276 256 247 249 262 265 145 149 152 123 136 200 266 273 252 268 285 246 247 258 251 229 206 215 245 244 178 152 158 164 159 151 125 51 43 174 154 117 118 122 70 27 68 106 327 299 200 161 155 147 125 116 117 118 113 109 110 114 118 133 184 146 117 123 131 133 128 128 139 155 154 155 186 183 114 105 86
272 283 289 290 288 283 281 286 291 288 280 270 263 259 254 244 215 204 248 239 229 241 246 255 258 255 268 281 247 228 230 232 212 200 227 239 155 157 163 160 131 85 67 53 110 89 12 154 128 114 318 285 101 98 230 240 148 142 149 146 134 130 130 124 115 110 100 92 98 115 132 113 106 120 132 136 136 129 128 153 165 170 188 192 143 133 147
281 289 288 286 281 274 274 284 292 286 279 273 268 264 256 242 230 224 206 193 216 259 248 244 279 255 258 299 295 224 229 233 146 188 232 162 127 154 173 124 86 75 84 120 146 165 237 218 128 119 197 203 110 116 226 175 133 131 144 146 144 136 124 119 124 128 121 105 91 91 101 104 101 107 121 131 139 139 140 207 201 171 159 41 125 147 157
290 292 287 280 274 270 274 280 279 275 267 255 256 266 260 234 216 205 192 187 197 264 223 213 250 267 263 266 257 279 290 284 158 218 262 162 134 153 149 85 66 255 200 79 76 213 215 131 111 139 163 137 132 199 219 171 155 161 171 163 154 144 134 140 149 141 126 116 106 102 110 118 122 132 143 149 161 158 163 201 190 130 94 21 36 102 105
290 288 283 282 281 279 281 270 247 238 247 250 247 244 216 188 184 186 193 203 226 265 267 229 225 227 250 252 223 326 340 337 167 185 255 184 146 151 124 115 126 270 282 89 202 218 219 89 123 164 161 152 182 207 200 172 161 172 187 182 164 155 158 158 149 137 127 123 121 120 130 151 164 161 154 161 168 125 108 90 100 120 129 172 182 123 114
280 275 279 298 295 273 259 242 223 216 223 230 195 164 153 150 154 167 191 214 225 224 235 304 266 235 253 279 222 175 1 297 208 182 151 129 97 19 64 148 172 240 275 227 209 212 243 303 228 201 196 198 199 192 183 177 171 171 176 170 156 150 149 142 137 136 132 133 138 141 149 183 186 152 141 162 171 144 139 178 208 137 128 169 167 150 150
253 253 273 289 284 251 237 226 210 205 207 208 155 152 158 164 176 184 188 195 196 193 196 247 260 252 280 301 219 175 181 219 222 185 110 87 73 4 342 312 158 167 230 224 207 138 113 162 213 233 230 220 200 178 166 169 169 155 143 142 145 143 134 131 140 145 146 154 170 170 172 193 195 162 160 186 182 162 159 164 140 103 43 20 42 44 36
191 215 266 246 237 253 274 192 168 174 186 208 236 216 184 185 210 212 192 182 187 188 195 216 226 231 246 259 247 208 199 192 125 125 89 7 47 39 345 331 331 271 246 229 198 102 189 189 190 220 233 228 213 187 163 152 148 137 131 134 139 138 136 140 150 157 160 165 167 165 168 177 178 168 171 179 161 141 143 150 148 154 141 66 42 23 2
196 238 245 222 244 313 313 165 155 158 172 199 223 232 216 202 211 211 192 194 202 199 196 203 213 216 221 235 252 234 189 155 128 133 127 23 343 141 159 213 224 271 256 233 181 159 223 210 181 203 226 223 204 180 163 152 146 141 138 135 133 138 143 142 142 155 160 131 114 116 121 123 125 132 140 140 136 134 132 127 122 120 116 99 64 323 292
205 229 258 302 322 320 309 207 170 175 202 222 198 200 212 214 222 231 225 216 214 209 199 196 200 203 206 223 251 242 169 140 116 119 113 72 296 186 149 144 129 271 265 244 158 146 223 225 201 216 224 200 172 162 155 148 144 142 142 136 133 139 145 143 150 166 167 119 100 106 109 106 105 103 95 97 102 98 79 65 54 46 36 307 263 264 274
229 256 303 315 313 304 285 230 199 207 240 271 219 233 225 211 214 226 237 233 228 213 191 190 202 206 194 195 214 222 157 129 111 101 111 125 264 233 126 117 179 228 233 202 139 165 214 222 222 227 207 169 156 151 147 146 146 146 146 143 140 147 157 166 168 164 153 129 116 118 121 116 113 110 100 92 94 99 99 93 8 305 300 296 305 313 314
254 278 298 303 296 274 240 210 207 209 175 98 78 241 234 227 217 211 216 228 235 233 197 178 184 194 187 184 193 192 126 130 136 112 114 138 200 213 156 158 207 223 179 125 153 206 214 219 227 215 168 149 149 147 145 145 144 143 146 149 151 160 169 168 151 140 133 126 122 125 130 133 132 133 138 141 137 133 131 107 69 44 26 13 353 334 326
281 286 283 267 230 211 192 179 199 202 186 176 185 203 213 215 210 210 214 209 206 224 222 190 181 188 187 180 172 133 115 135 151 134 132 143 157 171 179 197 214 211 164 162 206 215 218 226 218 176 152 150 152 148 145 145 144 144 145 145 150 158 160 144 129 124 123 123 127 134 142 144 141 138 134 117 90 73 57 46 40 29 17 4 344 330 330
272 238 216 248 270 252 157 163 219 216 204 201 203 212 222 222 215 216 223 215 203 211 213 202 196 198 188 173 164 153 133 131 154 165 156 151 163 179 196 207 204 194 218 235 229 217 220 224 186 156 158 162 158 151 151 152 149 146 143 142 149 156 148 132 127 128 130 137 145 149 142 128 116 108 98 82 71 66 54 42 33 21 8 356 348 349 355
245 212 161 138 264 266 239 203 203 202 209 216 212 214 230 242 243 242 248 250 247 241 221 199 196 200 186 165 156 149 136 139 158 165 155 153 184 201 203 195 184 209 231 237 238 236 232 210 169 160 166 164 154 149 150 147 144 144 145 149 157 158 144 133 131 131 134 137 134 122 110 103 100 96 91 84 76 68 55 39 21 7 357 347 343 345 343
247 232 196 179 216 232 228 221 215 213 222 229 226 225 233 246 257 262 250 206 243 295 300 188 160 174 160 152 154 157 155 156 160 159 157 167 199 242 227 199 211 226 227 226 233 243 236 181 157 160 161 153 146 145 145 141 144 148 147 146 153 153 142 133 129 126 123 118 110 104 105 109 110 111 112 106 95 80 53 10 338 327 334 336 332 328 327
248 225 212 207 207 210 213 222 236 240 236 237 240 237 233 241 256 259 241 163 114 54 34 39 45 41 26 337 252 168 156 158 166 211 233 196 185 183 199 221 230 230 227 234 241 239 201 156 150 150 147 143 143 145 145 146 151 153 149 148 152 150 142 134 126 119 115 113 114 118 122 119 112 108 105 101 99 104 90 11 4 0 345 331 325 327 334
269 255 226 237 248 235 222 219 228 240 245 246 246 241 231 233 240 240 197 101 88 77 71 71 80 75 6 297 260 168 161 187 192 198 222 217 195 181 201 225 226 217 222 252 265 215 143 141 140 139 141 143 145 147 150 154 155 155 155 155 154 149 139 128 119 118 119 122 123 119 112 106 105 112 121 121 98 72 62 46 6 328 304 298 308 331 342
253 242 234 242 253 262 256 228 225 239 252 252 247 247 246 245 249 265 65 96 111 103 83 68 63 54 12 317 278 143 145 258 224 182 198 211 208 204 218 226 227 234 273 294 294 126 129 134 136 138 141 145 147 150 155 155 154 156 157 153 148 141 132 124 121 122 124 122 115 108 105 108 118 126 122 109 88 59 346 266 253 254 266 292 350 12 359
241 239 243 245 251 271 295 284 255 267 284 286 274 261 251 239 250 344 55 115 123 112 95 81 79 73 40 295 274 137 132 193 201 197 215 220 209 219 231 232 214 64 348 324 46 116 126 132 136 140 142 145 148 150 151 149 147 146 143 138 134 132 130 130 131 129 122 116 116 119 124 127 129 118 101 101 158 234 244 239 221 201 196 114 64 57 31
234 241 256 255 253 258 272 277 276 288 303 304 296 284 277 271 118 145 156 151 135 118 109 101 101 116 149 216 255 40 89 200 197 201 216 220 212 216 230 216 124 130 161 302 4 104 130 134 136 139 140 141 139 135 132 130 129 127 126 126 128 131 134 136 135 132 129 129 137 144 143 137 138 146 161 192 217 230 230 203 162 148 139 100 72 69 67
Height
819 817 816 814 811 810 807 805 802 798 794 790 790 790 787 788 785 770 761 762 761 771 785 783 779 781 773 762 758 760 763 764 763 761 761 763 763 764 766 767 769 772 773 772 775 779 782 781 780 779 777 774 772 766 763 765 766 771 781 780 773 775 783 792 794 782 772 765 755 748 745 747 755 757 748 744 747 748 753 760 757 761 769 762 773 808 810
819 817 816 813 811 810 807 806 803 800 798 796 795 793 790 788 782 770 763 761 761 775 786 785 783 776 764 760 760 760 762 765 765 767 768 766 767 770 770 768 769 770 769 772 775 778 783 785 780 778 781 776 768 764 764 767 770 775 782 781 778 783 789 794 803 804 797 790 782 772 763 762 770 769 756 748 745 744 748 749 750 766 778 773 788 815 809
819 817 815 813 811 810 807 806 804 801 801 800 798 797 793 789 783 773 763 759 762 772 776 777 779 773 766 765 764 762 763 761 763 768 768 765 767 772 771 767 767 768 768 772 774 774 780 786 782 780 783 777 768 766 767 768 771 773 774 771 774 785 790 792 807 821 823 821 813 801 788 779 775 772 763 755 752 754 759 758 762 781 788 780 792 813 806
818 816 815 813 811 809 807 806 804 802 801 799 798 798 793 791 788 780 768 760 761 766 765 767 774 773 771 770 765 765 769 764 761 765 768 766 765 768 768 765 768 771 772 777 780 776 776 781 783 783 784 781 772 767 767 769 771 771 770 768 773 783 787 787 795 804 809 812 805 791 786 784 780 775 766 759 756 757 760 766 773 781 788 790 792 798 800
818 816 814 812 810 809 807 805 804 802 800 798 798 795 792 792 790 783 779 774 769 767 765 766 770 768 769 772 768 766 770 769 765 765 766 766 765 768 769 768 773 777 776 780 785 782 779 781 784 785 785 782 774 769 769 770 770 770 769 768 773 786 792 786 786 788 786 787 785 778 778 781 780 777 770 763 760 758 763 776 778 774 788 804 795 784 795
818 815 814 812 810 808 806 804 802 801 800 798 797 794 790 790 785 776 777 783 781 778 772 765 765 763 763 767 768 768 770 770 770 769 767 764 765 772 776 773 772 774 774 779 785 786 787 788 788 788 787 784 781 778 777 773 770 771 772 769 773 788 795 786 782 785 779 775 775 773 775 779 778 776 773 767 765 765 769 778 779 778 796 811 797 787 798
817 815 814 812 810 808 806 804 802 799 798 795 795 795 789 786 784 775 774 780 782 778 771 761 760 761 763 766 768 770 772 770 767 765 767 770 768 772 781 779 771 769 769 776 786 789 792 795 793 789 788 786 786 788 787 780 772 773 776 772 773 786 792 785 783 786 781 775 773 769 772 779 779 776 775 772 772 774 777 781 780 781 793 799 794 798 806
817 815 814 812 810 809 806 804 802 798 797 794 793 794 790 788 790 784 781 781 778 774 769 763 762 762 764 769 769 768 770 770 764 759 765 775 775 773 780 778 771 770 770 775 784 784 784 790 789 786 788 788 786 789 790 784 777 776 778 776 776 786 792 785 783 790 788 778 773 770 771 776 780 780 779 777 779 782 786 788 786 787 795 796 798 807 808
817 815 814 812 810 809 806 804 802 799 797 796 793 792 791 790 790 787 788 786 779 776 772 766 766 766 767 770 769 767 769 766 765 763 763 770 775 773 775 775 770 770 772 776 779 774 773 780 779 777 781 783 782 782 782 781 781 780 780 780 780 785 791 786 787 801 799 782 775 774 769 771 781 789 788 785 787 791 793 793 793 795 801 803 806 813 812
816 814 814 812 810 809 807 805 803 801 799 799 798 795 792 791 789 786 789 790 782 778 775 770 769 768 765 765 764 765 766 760 763 771 768 764 768 768 770 774 775 776 779 779 775 769 768 773 772 770 772 772 772 774 773 772 778 781 783 784 782 783 790 792 795 807 803 784 777 776 773 784 799 800 793 789 789 792 795 796 795 794 799 808 813 814 811
816 814 813 812 811 810 808 806 804 802 801 801 802 800 796 796 794 788 791 795 786 778 778 776 772 766 760 759 760 761 762 760 763 773 775 768 764 764 767 772 778 781 780 773 766 763 764 767 767 768 770 771 770 770 770 769 771 775 779 784 784 784 789 791 794 804 804 789 779 781 792 810 812 795 783 785 789 794 801 803 799 795 796 802 807 806 806
815 814 813 812 811 810 808 807 806 804 804 803 804 803 799 799 799 793 796 802 793 781 780 778 772 768 764 761 761 760 760 761 760 764 771 770 765 765 767 772 779 781 773 764 761 763 767 769 771 771 772 773 771 769 770 772 771 770 773 780 786 787 790 792 792 798 802 793 790 806 821 817 801 786 779 780 784 791 799 802 799 796 797 798 800 803 806
814 813 812 811 811 810 808 807 806 805 804 804 802 802 800 799 800 796 797 803 797 786 783 778 771 770 770 765 764 761 757 758 758 759 766 769 768 769 768 770 775 773 765 762 765 771 778 780 780 780 777 774 773 772 772 772 772 770 768 773 782 788 792 795 794 795 800 804 810 825 827 809 792 789 786 781 784 789 796 807 806 799 797 799 800 804 806
813 812 812 811 810 809 808 807 806 805 804 804 802 801 800 799 800 798 797 803 800 788 785 784 777 773 772 768 766 763 758 759 763 764 765 767 769 770 766 765 766 763 761 766 772 778 786 788 789 789 786 784 787 787 780 775 772 771 770 772 777 784 791 797 800 798 800 811 815 814 819 816 806 801 796 790 790 790 794 811 815 803 798 800 803 806 809
812 811 811 811 809 809 808 806 806 805 803 803 802 800 800 799 799 799 798 802 803 794 787 786 783 778 775 771 769 767 764 764 767 766 764 764 767 766 762 760 761 761 762 770 779 784 787 792 797 800 798 799 803 800 789 782 776 770 771 774 775 780 786 794 804 801 797 808 815 814 825 831 818 808 800 790 788 786 786 805 818 808 801 804 806 809 811
811 811 810 810 809 808 808 806 805 804 803 803 801 800 800 799 799 799 797 799 803 798 785 779 779 778 776 772 769 768 767 766 767 768 769 769 769 766 760 758 761 764 767 775 782 785 789 796 799 800 800 800 803 802 796 793 787 777 773 774 776 780 782 786 799 804 799 805 816 821 830 830 817 808 799 789 789 786 785 808 826 815 805 806 808 810 813
810 810 810 809 809 808 807 806 805 804 803 802 801 800 799 799 799 800 798 798 801 796 781 775 778 778 777 776 771 768 766 764 764 770 774 774 771 768 764 761 763 765 769 778 784 786 792 797 795 797 798 792 794 802 800 797 798 792 784 783 784 785 786 789 800 806 801 803 814 822 827 823 811 804 798 791 789 786 797 829 838 818 807 809 808 810 813
810 809 809 809 808 808 807 806 805 804 803 802 801 800 799 798 799 800 798 798 800 793 779 775 779 779 778 777 773 768 766 764 764 769 772 772 771 770 768 767 769 770 771 778 786 790 795 795 792 796 800 790 789 799 801 799 802 800 793 794 794 793 793 795 802 805 803 809 820 826 825 816 804 800 797 790 789 799 822 842 833 813 810 811 807 809 812
809 809 808 808 807 807 806 805 804 803 802 802 800 799 798 798 798 799 798 797 798 792 781 776 779 778 775 773 770 766 764 763 764 768 774 777 773 767 766 766 769 773 775 779 786 789 792 794 790 792 798 795 790 795 797 796 797 795 795 799 803 803 802 800 804 807 807 811 820 828 828 814 800 799 795 790 801 823 832 825 813 810 812 810 807 809 810
808 808 807 807 806 806 805 804 804 803 802 801 800 798 797 797 797 798 798 797 796 792 782 777 778 777 774 775 775 772 768 766 766 767 775 779 770 769 780 783 776 776 780 785 789 788 790 796 795 792 795 796 791 792 794 792 790 790 794 799 802 805 808 809 809 808 808 813 822 834 835 815 797 799 801 800 812 823 817 808 808 810 809 808 809 809 809
808 807 806 806 806 805 805 804 803 803 802 801 801 798 796 795 796 797 797 795 796 794 784 777 776 775 774 774 772 770 768 765 763 764 769 772 767 773 788 790 781 779 782 786 791 790 787 792 794 791 791 791 790 793 797 797 795 790 788 793 799 802 806 812 811 805 810 823 828 827 822 809 797 802 808 807 807 807 804 807 811 809 807 810 811 809 809
807 806 806 806 804 804 804 803 802 802 801 800 800 799 797 795 795 796 795 793 794 792 783 778 776 773 771 770 768 766 763 759 757 759 764 769 769 771 777 778 777 777 776 779 789 791 787 788 791 792 793 792 793 796 798 803 806 798 789 795 802 799 797 802 805 802 805 814 815 808 804 801 799 801 804 803 803 802 802 806 808 808 809 809 809 810 811
806 806 805 805 804 803 803 802 801 802 801 800 800 799 797 796 794 795 795 792 791 788 781 776 776 772 768 766 765 763 762 760 759 757 759 768 773 772 772 774 774 772 771 775 783 786 786 788 789 792 795 793 793 798 801 804 806 800 794 796 797 792 788 792 799 801 800 801 801 799 800 802 801 801 802 802 803 803 803 805 807 808 808 807 808 811 810
805 804 804 804 803 802 802 801 800 800 800 799 799 798 797 796 795 794 794 792 790 788 781 775 774 772 768 764 763 763 761 761 762 760 759 765 773 776 775 772 770 772 775 776 774 777 783 785 784 788 792 789 789 796 803 806 803 797 797 800 797 790 789 792 796 801 807 809 804 799 801 803 803 803 804 803 804 804 805 806 808 807 807 807 808 809 809
803 803 802 803 802 801 801 800 799 799 799 798 798 797 796 795 795 796 796 794 792 792 790 782 773 767 765 763 761 761 761 761 762 762 762 763 767 773 775 770 768 772 776 774 771 776 784 786 784 788 791 787 787 792 797 800 798 794 798 804 801 793 791 795 798 802 808 811 805 799 801 803 802 804 806 805 806 806 805 805 807 807 807 808 808 808 810
801 801 801 801 800 800 799 799 798 797 797 797 796 796 795 794 794 795 795 795 792 791 792 787 774 765 764 764 761 759 760 761 760 761 763 764 764 766 768 768 769 770 771 772 774 778 783 785 785 789 790 787 787 789 790 791 791 792 795 796 792 790 792 795 799 805 809 808 804 802 806 808 805 805 806 805 806 806 806 806 807 807 808 809 809 809 810
799 799 799 799 799 798 797 797 797 796 796 795 795 794 793 792 793 793 793 794 794 792 791 788 777 768 765 764 761 757 757 757 758 759 762 764 764 764 765 768 771 772 773 775 777 779 782 785 785 785 785 784 784 785 786 785 786 790 794 791 787 792 796 795 800 810 815 810 805 804 810 813 810 807 806 806 805 806 807 807 808 808 809 810 810 811 811
797 797 798 798 797 797 796 796 795 794 795 794 793 792 791 790 790 791 791 793 794 794 793 789 781 774 771 765 758 755 754 753 755 758 760 761 763 764 765 767 770 773 775 778 780 781 784 785 784 782 781 783 785 785 784 784 788 794 798 794 789 793 795 794 799 808 809 805 802 802 806 810 808 805 805 805 805 806 808 809 809 810 810 809 811 812 812
796 796 796 796 795 796 795 794 794 794 794 793 792 791 789 786 787 789 790 791 792 792 791 789 783 777 772 765 757 754 754 754 756 758 759 760 761 763 764 767 770 773 774 776 779 781 782 781 782 782 781 782 787 789 787 789 796 802 800 794 789 789 790 790 794 799 800 800 800 800 802 805 805 803 804 804 804 806 808 809 809 810 810 810 811 811 812
794 794 794 794 794 794 793 793 793 792 792 793 792 791 788 785 786 788 788 790 791 790 790 791 786 777 769 763 759 757 756 756 758 759 759 759 760 761 764 766 768 770 772 774 776 778 780 779 781 782 780 778 784 792 792 793 799 801 796 791 789 789 789 789 790 793 796 798 797 797 799 801 801 801 803 804 804 806 808 809 810 811 811 811 811 811 811
793 793 793 793 793 793 792 792 792 792 792 792 792 790 787 786 786 787 787 789 790 788 788 790 787 780 771 765 761 759 757 756 757 759 758 758 759 761 764 766 768 770 773 775 775 775 778 781 783 784 782 780 784 791 792 794 800 800 794 789 789 789 790 791 790 790 793 794 795 796 798 798 800 802 804 805 805 806 808 810 810 810 811 811 811 812 812
791 791 791 791 791 791 791 791 791 791 791 791 790 787 784 784 785 786 786 788 788 787 789 790 787 783 776 768 760 757 756 756 757 758 759 759 760 762 764 766 768 769 771 774 777 777 777 779 783 785 784 783 785 789 792 795 799 798 792 789 789 789 790 791 791 791 792 793 795 799 801 800 801 803 804 805 805 806 807 808 809 810 811 811 811 812 813
790 790 790 790 790 790 790 790 790 790 789 788 787 785 782 783 785 785 785 788 788 786 787 788 788 784 776 766 760 757 756 757 759 761 761 761 761 764 767 767 768 770 772 775 779 779 776 777 782 786 786 783 784 790 795 795 793 791 789 789 789 789 789 790 791 792 793 793 795 800 803 802 801 801 802 804 804 805 806 807 808 809 809 809 811 812 812
789 788 789 789 788 788 789 789 788 789 788 786 785 782 780 782 783 783 785 787 787 786 785 784 786 784 775 767 765 763 759 760 765 767 765 763 762 765 769 769 770 774 776 776 777 779 778 776 781 787 788 784 786 793 796 793 788 787 787 787 787 788 789 790 791 793 794 794 796 798 799 800 800 801 802 803 804 805 806 806 807 808 808 809 810 811 812
788 787 787 787 787 787 788 787 787 787 786 785 782 779 779 781 781 782 784 784 784 787 785 781 783 785 780 776 776 770 761 761 767 769 767 764 762 764 768 773 778 780 778 776 778 780 779 777 780 786 788 787 792 796 794 789 786 785 786 787 787 788 790 792 792 793 793 794 796 798 798 800 801 802 803 804 804 805 806 806 806 807 808 810 811 811 812
786 786 786 786 786 787 786 786 786 785 784 782 780 778 779 780 780 781 783 783 784 786 784 780 781 782 781 781 779 770 763 765 767 766 765 766 766 765 767 775 783 782 777 777 781 782 779 776 780 786 789 789 792 790 784 782 784 784 784 785 785 786 788 790 790 792 793 794 796 798 799 800 801 802 803 804 803 804 805 806 806 807 809 810 810 810 811
785 786 786 785 786 786 785 783 782 781 780 779 778 778 779 780 780 782 783 782 782 783 782 783 783 777 775 778 775 769 769 771 768 765 767 770 772 771 770 776 785 785 782 783 783 780 777 777 781 787 788 785 782 780 776 776 779 780 780 782 783 783 785 787 787 790 794 796 797 799 799 800 802 802 802 804 804 804 805 806 806 807 808 809 809 810 810
785 785 785 786 786 784 781 779 777 777 778 778 778 779 779 778 779 781 781 780 781 780 779 782 782 775 772 775 773 768 769 771 768 768 770 772 776 780 779 779 782 785 787 786 780 774 777 781 783 785 785 779 774 774 774 774 775 775 776 778 780 781 783 785 787 790 795 797 798 799 800 801 802 801 802 803 803 803 804 805 805 806 807 808 809 809 810
785 785 785 786 785 781 778 775 775 776 778 778 778 779 778 777 780 780 777 775 777 777 776 778 777 773 773 776 772 766 765 767 770 773 774 774 779 787 790 787 785 786 790 787 779 776 782 787 786 786 784 778 773 772 772 771 773 774 775 776 778 780 782 784 786 788 792 794 795 796 797 799 800 800 801 802 802 802 803 804 804 805 806 807 808 809 810
784 784 784 783 781 779 777 775 776 777 778 778 778 778 778 778 778 777 774 774 776 774 771 771 770 767 767 771 771 765 763 765 770 774 777 776 777 784 791 792 789 790 794 789 779 777 783 786 786 787 785 776 771 770 770 770 773 774 774 776 778 780 781 784 786 787 789 791 792 793 795 796 797 798 799 800 801 802 803 803 804 805 806 806 808 809 809
783 783 783 781 780 779 778 776 776 777 776 776 778 779 781 780 776 770 770 775 776 770 762 763 766 766 763 765 767 765 763 763 764 769 775 778 777 781 788 789 787 793 798 788 775 775 781 784 785 785 778 769 767 768 768 770 772 773 774 776 778 779 782 784 785 787 788 790 792 793 795 796 797 798 799 800 800 802 803 803 804 805 805 806 807 808 808
782 782 782 781 779 778 777 777 777 776 776 778 781 781 780 777 774 771 771 772 769 762 757 757 761 761 758 758 761 762 760 761 763 768 775 780 779 779 784 787 790 796 794 780 770 775 782 785 784 778 769 764 765 766 767 770 771 772 774 776 777 780 782 784 785 787 788 790 792 793 795 796 797 798 799 800 801 802 803 803 804 805 805 806 807 807 808
782 781 782 781 779 777 778 777 775 775 779 784 787 786 782 776 772 771 769 764 757 755 754 752 752 754 754 755 756 757 757 759 762 766 773 779 778 778 783 789 792 788 779 770 772 780 784 783 780 772 764 762 764 764 766 769 770 771 774 775 777 779 782 783 785 787 788 789 792 794 795 797 798 798 800 801 801 802 803 803 804 805 805 805 806 807 807
782 781 781 781 778 777 779 778 774 775 782 785 784 784 782 777 770 768 765 759 754 752 751 749 749 753 754 752 753 757 758 758 760 765 770 774 775 779 786 788 783 775 770 771 776 779 777 772 767 763 761 762 763 763 765 768 769 771 774 776 776 779 781 782 784 787 788 790 792 794 795 796 798 798 800 801 801 802 803 803 804 805 805 806 806 807 807
782 781 782 782 780 778 780 779 775 775 778 778 775 774 773 769 764 761 757 751 748 748 748 746 747 751 751 749 751 756 757 758 762 766 768 771 776 781 781 776 770 769 774 777 776 775 772 766 761 759 761 761 761 762 764 766 768 770 773 776 777 779 780 782 784 787 789 791 792 794 795 796 797 798 800 801 802 803 803 804 805 805 806 806 806 807 807
782 779 780 782 781 778 778 778 776 774 771 766 764 764 762 758 755 752 748 745 745 746 745 743 744 747 749 748 750 753 754 757 763 764 764 770 778 776 768 766 770 775 779 780 777 773 768 762 757 758 759 758 759 762 764 765 767 770 772 775 778 779 780 782 784 786 788 790 792 793 795 796 797 798 800 801 802 803 804 804 805 805 806 806 807 807 807
780 777 776 779 779 776 774 772 769 765 761 757 755 755 753 751 749 747 745 745 746 746 743 741 743 747 747 747 750 753 752 755 761 763 762 768 774 770 764 768 776 777 777 778 776 768 759 754 754 756 757 757 759 762 764 765 768 771 772 775 778 779 780 782 784 785 788 790 791 793 795 796 797 798 799 800 802 803 803 804 805 805 806 806 806 806 807
778 775 776 777 774 771 768 765 760 756 754 751 749 748 747 747 747 746 743 741 743 745 746 746 748 751 751 749 751 753 752 754 763 766 762 763 770 773 774 777 777 771 767 768 765 757 752 751 752 753 755 757 759 762 764 766 769 770 772 775 777 779 780 782 784 785 788 790 791 793 795 796 797 798 799 800 802 802 803 804 805 805 805 806 806 806 806
776 775 774 772 766 760 757 757 757 755 752 748 746 745 745 746 745 743 741 741 744 747 749 749 751 756 757 753 752 755 758 760 765 767 765 765 770 774 776 778 776 770 762 757 753 750 750 750 750 751 754 757 759 761 764 766 768 770 772 775 776 778 780 782 784 786 788 790 792 794 795 796 797 799 800 801 802 802 803 804 804 804 805 805 805 805 806
775 773 771 768 764 758 753 753 755 756 751 747 745 745 744 745 743 740 740 742 745 747 750 752 755 761 765 762 759 763 767 765 763 765 768 769 768 768 770 772 770 765 759 754 750 749 750 750 751 753 756 757 759 762 764 765 767 770 771 774 776 779 781 782 784 787 789 790 792 794 795 797 798 799 800 800 802 802 803 803 803 804 804 804 804 805 805
774 771 768 764 762 759 756 756 758 757 753 749 748 746 744 745 745 743 742 743 745 748 753 757 761 769 775 774 768 765 764 760 760 764 768 765 761 763 768 767 763 760 758 755 751 749 749 750 752 754 756 758 760 762 763 764 767 769 770 773 776 778 781 783 785 787 789 791 793 795 796 797 798 799 800 801 802 802 802 803 803 803 803 803 804 804 804
772 769 764 759 756 755 755 756 757 755 752 750 748 745 743 744 744 742 742 743 746 750 755 758 762 769 775 772 765 761 761 761 763 766 765 759 754 756 759 759 757 757 758 755 751 749 750 751 752 754 756 758 759 760 762 764 767 768 770 773 776 778 781 783 785 787 790 792 793 795 796 797 798 799 800 800 801 801 802 802 802 802 803 803 803 804 804